Temperature
23 22 21 21 20 20 19 19 19 19 19 18 18 18 18 18 18 18 18 18 17 17 17 17 17 17 17 17 17 17 17 17 17 18 18 18 17 17 17 17 17 17 17
23 22 21 21 20 20 20 20 19 19 19 19 19 18 18 18 18 18 18 18 18 18 18 17 17 17 17 17 17 17 17 17 17 17 18 19 18 18 17 17 17 17 17
24 23 22 21 21 20 20 20 19 19 19 19 19 18 18 18 18 18 18 18 18 18 18 18 17 17 17 17 17 17 17 17 17 17 17 18 19 18 18 17 17 17 16
24 23 22 21 21 21 20 20 20 20 19 19 19 18 18 18 18 18 18 18 18 18 18 18 18 17 17 17 17 17 17 17 17 17 17 17 17 18 18 18 17 17 17
25 24 23 22 21 21 20 20 20 20 20 20 19 19 18 18 18 18 18 18 18 18 18 18 18 18 17 17 17 17 17 17 17 17 17 17 17 17 17 18 17 17 17
25 24 23 22 22 21 21 20 20 20 20 20 19 19 19 19 18 18 18 18 18 18 18 18 18 18 17 17 17 17 17 17 17 17 17 17 17 17 17 17 17 17 17
25 24 23 22 22 21 21 21 20 20 20 20 20 19 19 19 19 18 18 18 18 18 18 18 18 18 18 17 17 17 17 17 17 17 17 17 17 17 17 17 17 17 17
25 24 23 23 22 21 21 21 20 20 20 20 20 20 19 19 19 19 18 18 18 18 18 18 18 18 18 17 17 17 17 17 17 17 17 17 17 17 16 17 17 17 17
25 25 24 23 22 22 21 21 21 20 20 20 20 20 20 19 19 19 19 18 18 18 18 18 18 18 18 18 17 17 17 17 17 17 17 17 17 17 16 16 16 17 17
26 25 24 23 23 22 21 21 21 21 21 20 20 20 20 20 20 19 19 19 18 18 18 18 18 18 18 17 17 17 17 17 17 17 17 17 17 17 16 16 16 16 16
26 25 24 23 22 22 21 21 21 20 20 20 20 20 20 20 20 19 19 19 19 18 18 18 18 18 18 17 17 17 17 17 17 16 16 16 16 16 16 16 16 16 16
26 25 24 23 22 22 21 21 21 20 20 20 20 20 20 20 20 19 19 19 19 18 18 18 18 18 17 17 17 17 17 16 16 16 16 16 16 16 16 16 16 16 16
25 24 23 23 22 22 21 21 21 20 20 20 20 20 20 20 20 19 19 19 19 18 18 18 18 17 17 17 17 17 17 16 16 16 16 16 16 16 16 16 15 15 15
24 24 23 22 22 21 21 21 21 21 20 20 20 20 20 20 19 19 19 19 19 18 18 18 18 17 17 17 17 17 16 16 16 16 16 16 15 15 15 15 15 15 15
24 23 23 22 22 21 21 21 21 21 20 20 20 20 20 19 19 19 19 19 19 18 18 18 17 17 17 17 16 16 16 16 16 16 16 15 16 16 15 15 15 15 15
23 23 22 22 22 21 21 21 21 21 20 20 20 20 20 19 19 19 19 18 18 18 18 18 17 17 17 17 17 16 16 16 16 16 16 15 16 16 15 15 15 15 14
23 22 22 22 21 21 21 21 21 20 20 20 20 20 19 19 19 19 18 18 18 18 18 17 17 17 17 17 17 17 16 16 15 15 15 15 15 15 15 15 15 14 14
22 22 21 21 21 21 21 20 20 20 20 20 20 20 19 19 19 18 18 18 17 17 17 17 17 17 17 17 17 16 16 15 15 15 15 15 15 14 14 14 14 14 14
21 21 21 21 21 21 20 20 20 20 20 20 19 19 19 19 18 18 18 17 17 17 17 17 16 16 16 16 16 16 15 15 15 15 15 15 14 14 14 14 14 13 13
20 20 20 20 20 20 20 20 19 19 19 19 19 19 19 18 18 18 18 17 17 17 16 16 16 16 16 16 16 16 15 15 15 14 14 15 14 14 14 14 13 13 13
19 20 20 20 20 20 20 19 19 19 19 19 19 19 19 18 18 18 17 17 16 16 16 16 15 15 15 15 15 15 15 14 14 14 14 14 14 14 14 14 13 13 13
19 19 19 20 20 20 19 19 19 19 19 19 19 19 18 18 18 17 17 16 16 16 16 15 15 15 15 15 15 15 15 15 14 14 14 13 14 14 14 13 13 13 13
19 19 19 19 19 19 19 19 19 19 19 19 18 18 18 18 17 17 17 16 16 16 15 15 15 15 14 14 14 14 14 14 14 14 13 14 13 13 13 13 13 13 13
18 18 18 19 19 19 19 19 19 19 18 18 18 18 18 18 17 17 16 16 16 15 15 15 15 15 14 14 14 14 14 14 14 13 13 13 13 13 13 13 13 13 12
17 18 18 18 18 18 18 18 18 18 18 18 18 18 18 18 17 17 16 16 15 15 15 15 14 14 14 14 14 13 13 13 13 13 13 13 13 13 12 12 12 12 12
17 17 17 17 18 18 18 18 18 18 18 18 18 18 18 17 17 17 16 16 16 15 15 15 14 14 13 13 13 13 13 13 13 12 12 12 12 12 12 12 12 12 12
Wind_Speed
9 9 9 8 8 8 7 7 6 6 5 4 3 3 3 2 2 1 2 1 1 1 1 1 1 1 0 0 0 1 0 0 1 1 1 1 2 1 1 1 2 1 1
10 10 10 9 9 8 8 8 7 7 6 4 3 2 1 2 2 1 1 2 2 2 2 1 2 1 1 1 1 1 2 1 1 2 2 1 2 2 1 1 1 2 1
11 11 11 11 10 10 9 8 8 7 7 6 4 3 3 3 2 2 2 2 2 2 2 2 2 1 2 1 2 2 2 2 2 2 3 3 2 2 1 1 1 2 2
11 12 12 12 11 10 9 8 8 7 7 7 6 5 4 3 2 2 1 2 2 2 2 2 2 2 2 1 3 1 3 3 3 1 2 3 3 3 2 1 1 1 2
11 12 13 12 11 11 10 9 9 8 8 7 7 6 5 4 3 2 2 2 2 2 2 3 3 3 2 2 3 3 4 3 4 3 2 2 2 4 4 3 3 2 1
11 11 12 11 11 10 10 10 9 9 8 8 7 7 6 5 4 3 2 3 2 2 3 3 3 3 3 2 3 3 4 4 4 4 3 3 3 3 3 4 4 3 2
11 11 11 12 11 12 11 10 10 9 9 9 8 8 7 7 5 5 4 3 3 2 2 3 3 3 3 3 3 3 4 4 4 4 4 4 4 4 4 4 4 4 3
11 11 12 12 12 12 11 11 11 10 10 9 8 8 7 6 5 5 4 4 3 2 1 2 3 3 3 3 3 4 3 3 3 4 4 4 4 3 4 4 4 4 4
10 11 12 12 12 12 12 11 11 10 10 9 9 8 8 7 6 5 6 5 3 3 3 3 3 3 3 3 3 3 3 2 3 3 3 3 3 3 3 4 4 4 5
9 10 10 11 11 11 11 11 10 10 10 9 8 7 8 7 7 6 5 4 4 3 3 3 3 3 3 3 3 3 2 2 3 2 3 4 3 2 3 4 4 4 5
8 8 9 10 10 10 10 10 10 9 9 8 8 7 7 7 7 6 6 5 5 4 4 3 3 3 3 3 3 3 3 3 3 3 3 3 4 3 3 3 3 4 4
7 8 8 9 9 10 10 10 9 9 8 7 7 7 6 6 6 6 6 6 5 5 4 4 4 4 3 3 3 3 3 3 3 3 3 3 3 3 3 3 3 3 3
6 7 7 8 8 9 9 9 8 8 7 7 7 7 7 6 6 6 6 6 6 5 4 4 4 4 3 3 3 3 3 3 3 3 3 3 3 3 3 3 3 3 3
6 7 7 7 8 8 8 8 8 8 7 7 7 7 6 6 6 6 6 6 5 5 5 4 4 4 4 3 3 3 3 3 3 3 3 3 3 3 3 3 3 3 3
5 6 7 7 7 8 8 8 8 7 7 7 7 7 6 6 5 5 5 5 5 5 4 4 4 3 4 3 3 3 4 3 3 3 3 3 2 2 3 3 3 3 3
5 5 6 6 7 7 7 7 7 7 8 8 7 6 6 6 6 5 5 5 5 5 4 4 4 4 2 1 1 3 3 4 4 4 4 3 2 2 3 2 3 3 4
3 4 5 6 6 7 7 7 7 7 7 7 7 6 6 6 6 6 6 5 5 4 4 4 4 3 2 2 2 3 4 4 4 4 4 4 2 2 2 3 5 4 4
2 3 3 4 5 5 6 6 6 6 6 6 6 6 6 6 6 6 6 5 5 4 4 4 4 3 3 3 3 3 4 4 4 4 4 4 3 2 3 3 3 4 3
1 2 2 3 4 5 6 6 6 6 6 6 6 6 6 6 6 6 6 5 5 4 4 4 4 4 3 3 3 4 4 4 4 4 4 4 4 1 2 4 4 4 4
2 0 1 2 3 4 6 6 6 6 5 5 5 5 6 6 6 6 6 5 4 4 4 4 4 4 4 4 3 4 4 4 4 4 4 3 3 2 3 5 5 5 5
2 1 1 2 2 4 5 6 5 5 5 5 5 5 5 6 5 5 5 5 5 4 4 4 4 4 4 4 4 4 4 4 4 4 4 2 3 4 5 6 5 6 6
3 1 1 1 2 4 5 5 5 5 5 5 5 5 5 5 4 5 5 5 5 5 5 4 4 4 4 4 4 5 6 6 5 5 4 2 3 5 7 6 5 7 7
3 2 1 1 1 3 5 5 5 4 5 5 5 5 5 5 5 5 5 5 5 5 4 4 4 4 3 3 5 6 6 6 5 4 3 2 4 6 6 6 7 7 5
3 3 1 0 0 2 4 4 4 5 5 5 5 5 6 5 5 4 5 5 5 5 5 5 5 4 4 4 3 4 4 5 5 5 4 5 6 6 5 4 5 4 4
5 4 2 2 2 2 3 4 4 4 5 5 5 5 5 5 5 5 4 6 5 5 5 5 5 5 5 3 2 4 4 4 3 3 4 3 3 3 3 3 3 3 3
5 4 4 4 3 3 3 3 4 5 5 5 5 4 4 4 4 4 3 1 2 3 4 4 5 4 2 1 1 3 3 3 4 4 4 4 3 3 3 3 3 3 3
Wind_Direction
183 181 183 182 180 180 181 186 188 181 187 189 192 183 179 179 171 171 147 182 223 217 245 287 151 249 201 274 269 300 256 290 315 283 267 215 210 238 258 267 295 292 287
181 180 184 186 188 188 190 192 194 192 196 192 199 197 187 189 183 174 156 215 230 245 223 227 253 229 214 219 245 259 295 299 277 304 297 276 196 186 215 257 270 296 291
186 185 188 192 192 193 195 198 198 195 200 195 199 192 187 206 187 192 193 213 236 247 264 242 259 259 252 232 252 255 273 296 289 302 305 308 336 326 184 222 269 287 292
193 189 189 192 195 195 193 196 196 199 200 199 207 209 208 208 205 220 209 224 241 256 247 244 246 263 279 264 256 251 269 272 286 263 266 294 306 295 294 246 269 277 280
194 191 191 192 195 195 193 192 193 196 197 201 202 211 218 213 208 216 208 241 237 238 234 233 233 244 259 273 287 273 267 267 275 283 276 268 252 260 278 293 301 294 298
192 192 191 190 195 194 194 193 189 193 195 200 205 213 220 224 225 229 229 233 225 222 220 231 234 242 258 257 266 270 261 267 278 282 282 278 280 279 281 285 288 300 305
191 191 191 190 193 194 194 194 190 194 197 200 205 211 216 220 223 232 226 241 240 227 218 243 241 250 251 258 268 262 277 268 268 268 275 283 283 285 280 281 290 296 297
193 193 193 192 193 193 192 193 192 196 199 202 206 211 215 220 224 223 241 237 253 254 238 239 241 248 250 252 252 264 263 264 266 268 274 275 275 280 277 275 282 288 286
191 193 193 192 193 192 191 193 192 196 199 202 205 209 213 221 228 224 229 239 242 243 225 233 235 240 243 253 258 268 282 278 269 266 255 264 274 266 274 275 273 281 292
189 191 191 192 193 192 191 193 192 194 199 202 206 208 211 215 222 227 225 232 234 240 236 231 229 232 237 238 247 252 251 261 270 280 292 282 271 271 263 270 275 278 283
188 188 189 189 189 190 190 190 194 194 197 204 206 212 209 211 214 218 220 218 221 222 223 226 227 228 233 240 244 258 254 255 267 273 274 279 289 279 273 269 270 273 272
188 186 185 183 186 189 191 191 194 194 197 199 202 205 207 208 210 212 216 216 216 215 213 217 223 229 231 233 242 254 258 256 264 273 276 279 278 276 275 273 267 268 265
189 182 179 180 184 186 188 189 191 194 195 194 197 200 204 205 210 212 209 209 210 212 212 213 226 236 240 235 241 252 259 260 261 264 269 274 276 275 277 276 275 274 268
185 181 177 178 181 184 186 188 191 194 193 193 196 197 200 202 207 208 204 203 205 206 206 211 223 233 240 241 242 242 252 260 260 263 267 268 267 270 272 265 270 272 269
184 181 181 182 183 185 186 190 191 189 190 191 196 197 198 197 199 201 201 199 205 206 204 209 217 227 231 240 242 238 240 246 250 252 255 262 281 308 288 287 283 277 267
194 188 185 185 186 187 187 187 188 188 188 192 195 193 195 195 196 198 195 195 199 205 205 210 217 225 239 75 287 263 248 248 246 249 254 246 231 235 213 243 279 286 272
203 200 202 197 192 191 189 187 184 184 188 192 193 192 195 198 200 199 192 193 196 199 204 213 217 218 213 168 200 259 248 245 252 256 261 266 250 236 243 222 224 238 248
228 218 215 203 196 188 185 185 178 178 185 191 193 193 193 196 195 195 193 195 198 200 206 211 215 220 211 162 185 234 236 248 253 257 262 264 262 265 270 258 259 261 256
273 246 225 201 189 181 175 172 175 177 182 191 198 198 198 196 195 196 196 196 197 202 210 213 216 219 209 164 192 236 235 239 249 255 256 257 254 261 280 261 263 265 263
347 287 178 161 169 174 171 173 177 177 185 191 196 197 199 202 203 197 195 194 197 206 214 214 219 217 218 184 193 239 243 244 248 248 244 241 247 247 253 254 261 266 272
8 23 108 139 159 164 166 174 178 188 194 191 191 194 198 203 200 193 193 195 200 205 215 216 222 222 220 196 196 226 245 252 254 254 249 238 165 233 253 258 260 267 275
7 14 82 118 158 168 172 181 190 195 194 189 189 192 195 203 194 188 194 201 203 205 211 216 229 227 219 213 205 212 236 269 253 259 265 263 175 228 244 253 264 266 267
357 353 45 101 155 180 188 194 200 194 188 188 188 189 191 198 200 195 196 203 208 218 220 223 231 236 234 216 193 203 222 246 252 266 293 285 235 242 241 238 244 250 255
346 344 345 341 210 212 215 215 207 192 189 192 193 192 194 199 201 204 205 212 221 225 227 230 234 237 237 237 227 231 233 231 240 258 247 224 226 241 258 244 235 246 262
338 334 321 309 300 268 238 230 218 199 200 202 205 206 203 199 204 212 218 219 222 228 232 238 241 244 248 246 259 247 246 251 257 265 255 252 249 253 255 260 259 261 263
329 322 313 306 305 295 260 240 219 207 210 212 213 217 216 208 215 216 224 204 214 172 206 233 249 251 247 152 215 256 269 267 250 250 254 259 262 262 264 265 262 255 259
Height
1535 1537 1539 1541 1542 1543 1545 1546 1547 1548 1549 1550 1552 1552 1553 1553 1554 1554 1553 1553 1553 1553 1553 1554 1553 1553 1553 1553 1553 1552 1552 1551 1550 1550 1549 1549 1548 1547 1547 1547 1546 1546 1545
1533 1535 1538 1539 1541 1542 1543 1545 1546 1547 1548 1549 1551 1551 1552 1553 1553 1553 1553 1552 1553 1552 1553 1552 1553 1553 1552 1552 1552 1551 1551 1551 1550 1550 1549 1548 1548 1546 1546 1545 1545 1544 1544
1529 1532 1535 1537 1539 1541 1542 1544 1545 1546 1547 1548 1549 1550 1551 1552 1552 1552 1552 1552 1552 1552 1552 1552 1552 1552 1552 1552 1551 1550 1550 1550 1549 1548 1549 1548 1546 1546 1545 1544 1544 1543 1542
1527 1529 1532 1534 1536 1539 1541 1542 1543 1544 1545 1546 1548 1549 1550 1551 1551 1551 1552 1551 1551 1551 1551 1551 1551 1550 1551 1550 1550 1550 1549 1548 1549 1548 1547 1547 1546 1545 1544 1544 1543 1541 1540
1523 1526 1529 1531 1534 1537 1539 1540 1541 1542 1543 1545 1546 1547 1548 1549 1550 1550 1550 1550 1550 1550 1550 1550 1550 1549 1550 1549 1548 1548 1547 1547 1547 1547 1546 1545 1544 1544 1543 1542 1541 1540 1539
1520 1523 1527 1529 1532 1534 1536 1538 1539 1540 1541 1543 1544 1545 1546 1547 1548 1548 1549 1549 1549 1549 1549 1548 1548 1548 1548 1547 1547 1546 1546 1545 1545 1545 1544 1544 1543 1542 1541 1540 1539 1538 1537
1517 1520 1523 1526 1529 1531 1533 1535 1536 1537 1539 1540 1542 1543 1544 1545 1546 1547 1547 1548 1548 1548 1547 1547 1546 1546 1546 1546 1545 1544 1544 1543 1543 1542 1542 1542 1541 1540 1540 1538 1537 1536 1535
1514 1517 1520 1523 1526 1528 1530 1532 1533 1535 1537 1538 1539 1541 1542 1543 1545 1545 1546 1546 1547 1546 1546 1545 1545 1545 1544 1544 1544 1543 1542 1541 1540 1540 1539 1539 1539 1538 1537 1537 1536 1534 1533
1511 1514 1517 1520 1523 1525 1527 1529 1531 1532 1534 1536 1537 1539 1540 1541 1542 1543 1544 1544 1544 1544 1544 1543 1543 1543 1542 1542 1541 1541 1540 1540 1539 1538 1537 1537 1536 1536 1535 1534 1534 1533 1531
1509 1512 1515 1517 1520 1522 1524 1526 1528 1530 1532 1533 1535 1537 1538 1538 1539 1540 1541 1541 1542 1542 1541 1541 1541 1541 1540 1540 1539 1539 1538 1537 1537 1536 1535 1534 1534 1533 1533 1532 1531 1531 1530
1507 1509 1512 1514 1517 1519 1522 1523 1525 1527 1529 1531 1532 1534 1535 1536 1537 1538 1538 1539 1539 1539 1539 1539 1539 1538 1538 1538 1537 1537 1536 1535 1535 1534 1533 1532 1531 1531 1530 1530 1529 1528 1527
1505 1507 1510 1512 1514 1516 1518 1520 1523 1525 1526 1528 1529 1531 1532 1533 1534 1535 1536 1536 1536 1537 1537 1537 1536 1536 1536 1535 1535 1535 1534 1533 1533 1532 1531 1530 1529 1528 1528 1527 1526 1526 1525
1503 1505 1508 1509 1511 1513 1515 1518 1520 1522 1524 1525 1527 1528 1529 1530 1531 1532 1533 1533 1534 1534 1534 1534 1534 1534 1534 1533 1533 1532 1532 1531 1530 1530 1529 1528 1527 1526 1525 1524 1524 1524 1523
1502 1503 1505 1507 1509 1511 1513 1515 1517 1519 1521 1522 1524 1525 1526 1527 1528 1529 1530 1531 1531 1532 1532 1532 1532 1532 1531 1531 1530 1530 1529 1529 1528 1527 1526 1525 1525 1524 1523 1522 1521 1521 1520
1500 1501 1503 1505 1507 1508 1510 1512 1514 1516 1518 1519 1521 1522 1523 1524 1525 1526 1527 1528 1528 1529 1529 1529 1529 1529 1529 1528 1528 1527 1526 1526 1525 1524 1524 1523 1522 1521 1520 1520 1519 1518 1518
1499 1500 1502 1503 1504 1506 1507 1509 1511 1513 1514 1516 1517 1519 1520 1521 1522 1523 1524 1524 1525 1526 1526 1526 1526 1526 1526 1525 1525 1524 1524 1523 1522 1522 1521 1520 1519 1518 1517 1517 1516 1516 1515
1497 1499 1500 1501 1502 1504 1505 1506 1508 1510 1512 1513 1514 1516 1517 1518 1519 1520 1521 1521 1521 1522 1522 1523 1523 1523 1522 1522 1522 1521 1521 1520 1520 1519 1518 1518 1517 1516 1515 1514 1514 1513 1512
1496 1497 1498 1499 1500 1502 1503 1504 1506 1508 1509 1510 1512 1513 1514 1515 1516 1517 1517 1518 1518 1519 1519 1519 1520 1520 1519 1519 1519 1519 1518 1518 1517 1516 1516 1515 1514 1514 1513 1512 1511 1511 1509
1495 1495 1496 1497 1498 1499 1500 1502 1504 1505 1507 1508 1509 1510 1511 1512 1513 1514 1514 1515 1515 1516 1516 1517 1517 1517 1516 1516 1516 1515 1515 1515 1514 1514 1513 1512 1512 1511 1510 1510 1509 1508 1507
1494 1494 1494 1495 1495 1497 1498 1500 1501 1503 1504 1505 1507 1508 1509 1510 1510 1511 1511 1512 1513 1513 1514 1514 1514 1514 1513 1513 1513 1512 1513 1512 1511 1511 1510 1509 1509 1508 1507 1506 1506 1505 1504
1492 1493 1493 1493 1494 1495 1496 1498 1499 1500 1502 1503 1504 1505 1506 1507 1508 1508 1508 1509 1510 1510 1511 1511 1511 1511 1510 1510 1510 1510 1509 1509 1509 1508 1508 1507 1506 1505 1504 1503 1502 1501 1501
1491 1492 1492 1492 1493 1493 1495 1495 1497 1499 1500 1501 1501 1502 1503 1504 1505 1505 1505 1506 1507 1507 1507 1508 1508 1508 1508 1507 1507 1506 1506 1505 1505 1505 1505 1504 1503 1502 1501 1500 1499 1498 1498
1491 1491 1491 1491 1492 1492 1494 1494 1495 1496 1498 1498 1498 1499 1500 1502 1502 1502 1503 1503 1504 1504 1505 1505 1505 1505 1505 1504 1503 1503 1503 1502 1501 1501 1501 1500 1499 1499 1498 1497 1496 1495 1495
1490 1490 1490 1490 1490 1491 1492 1493 1494 1494 1495 1495 1496 1497 1497 1498 1499 1499 1500 1501 1501 1501 1502 1502 1501 1502 1501 1501 1500 1500 1500 1499 1499 1498 1497 1496 1496 1495 1495 1494 1493 1493 1492
1489 1489 1489 1488 1488 1489 1490 1490 1491 1491 1492 1493 1493 1494 1495 1495 1496 1496 1496 1497 1497 1498 1498 1498 1498 1498 1498 1498 1498 1497 1497 1496 1496 1495 1495 1494 1493 1492 1492 1491 1490 1489 1489
1488 1488 1487 1487 1486 1486 1487 1487 1487 1488 1489 1489 1490 1491 1492 1492 1493 1493 1493 1493 1494 1493 1494 1494 1495 1495 1495 1494 1494 1494 1493 1493 1492 1492 1492 1491 1490 1489 1489 1488 1487 1486 1485